Time,TemperatureF,DewpointF,PressureIn,WindDirection,WindDirectionDegrees,WindSpeedMPH,WindSpeedGustMPH,Humidity,HourlyPrecipIn,Conditions,Clouds,dailyrainin,SoftwareType,DateUTC
2013-01-24 00:14:00,78.7,74.0,29.95,ENE,61,3.0,10.0,86,0.00,,,0.00,weatherlink.com 1.10,2013-01-24 04:14:00,
2013-01-24 00:29:00,78.8,74.0,29.95,East,82,3.0,9.0,86,0.00,,,0.00,weatherlink.com 1.10,2013-01-24 04:29:00,
2013-01-24 00:44:00,78.9,74.0,29.95,ENE,76,5.0,10.0,86,0.00,,,0.00,weatherlink.com 1.10,2013-01-24 04:44:00,
2013-01-24 00:59:00,78.9,74.0,29.95,ESE,109,5.0,10.0,85,0.00,,,0.00,weatherlink.com 1.10,2013-01-24 04:59:00,
2013-01-24 01:14:00,79.0,74.0,29.94,ESE,117,5.0,13.0,84,0.00,,,0.00,weatherlink.com 1.10,2013-01-24 05:14:00,
2013-01-24 01:29:00,79.1,74.0,29.94,East,96,9.0,12.0,85,0.00,,,0.00,weatherlink.com 1.10,2013-01-24 05:29:00,
2013-01-24 01:44:00,79.1,74.0,29.94,ENE,69,7.0,11.0,84,0.00,,,0.00,weatherlink.com 1.10,2013-01-24 05:44:00,
2013-01-24 02:00:00,79.0,74.0,29.93,ENE,76,4.0,11.0,85,0.00,,,0.00,weatherlink.com 1.10,2013-01-24 06:00:00,
2013-01-24 02:15:00,79.0,74.0,29.93,East,86,8.0,11.0,84,0.00,,,0.00,weatherlink.com 1.10,2013-01-24 06:15:00,
2013-01-24 02:30:00,79.0,74.0,29.93,ENE,61,3.0,10.0,84,0.00,,,0.00,weatherlink.com 1.10,2013-01-24 06:30:00,
2013-01-24 02:45:00,79.0,74.0,29.92,East,86,5.0,11.0,84,0.00,,,0.00,weatherlink.com 1.10,2013-01-24 06:45:00,
2013-01-24 03:00:00,79.2,74.0,29.92,East,82,2.0,13.0,84,0.00,,,0.00,weatherlink.com 1.10,2013-01-24 07:00:00,
2013-01-24 03:15:00,79.2,74.0,29.91,ENE,74,5.0,12.0,83,0.00,,,0.00,weatherlink.com 1.10,2013-01-24 07:15:00,
2013-01-24 03:30:00,79.2,74.0,29.91,SE,132,5.0,13.0,83,0.00,,,0.00,weatherlink.com 1.10,2013-01-24 07:30:00,
2013-01-24 03:45:00,79.1,74.0,29.91,ESE,108,8.0,11.0,83,0.00,,,0.00,weatherlink.com 1.10,2013-01-24 07:45:00,
2013-01-24 04:00:00,79.0,74.0,29.91,ENE,77,4.0,13.0,83,0.00,,,0.00,weatherlink.com 1.10,2013-01-24 08:00:00,
2013-01-24 04:15:00,78.9,74.0,29.91,East,94,7.0,8.0,84,0.00,,,0.00,weatherlink.com 1.10,2013-01-24 08:15:00,
2013-01-24 04:30:00,79.1,74.0,29.91,ENE,76,8.0,12.0,84,0.00,,,0.00,weatherlink.com 1.10,2013-01-24 08:30:00,
2013-01-24 04:45:00,79.0,74.0,29.92,NE,46,5.0,11.0,84,0.00,,,0.00,weatherlink.com 1.10,2013-01-24 08:45:00,
2013-01-24 05:00:00,79.0,74.0,29.92,NE,43,2.0,8.0,84,0.00,,,0.00,weatherlink.com 1.10,2013-01-24 09:00:00,
2013-01-24 05:15:00,79.0,74.0,29.92,NNE,23,3.0,10.0,83,0.00,,,0.00,weatherlink.com 1.10,2013-01-24 09:15:00,
2013-01-24 05:30:00,78.9,74.0,29.93,ESE,105,2.0,9.0,84,0.00,,,0.00,weatherlink.com 1.10,2013-01-24 09:30:00,
2013-01-24 05:45:00,78.8,74.0,29.93,East,79,5.0,9.0,84,0.00,,,0.00,weatherlink.com 1.10,2013-01-24 09:45:00,
2013-01-24 06:00:00,78.7,74.0,29.93,East,92,5.0,7.0,85,0.00,,,0.00,weatherlink.com 1.10,2013-01-24 10:00:00,
2013-01-24 06:15:00,78.7,74.0,29.93,ENE,63,2.0,9.0,85,0.00,,,0.00,weatherlink.com 1.10,2013-01-24 10:15:00,
2013-01-24 06:30:00,79.0,74.0,29.93,East,87,7.0,11.0,84,0.00,,,0.00,weatherlink.com 1.10,2013-01-24 10:30:00,
2013-01-24 06:45:00,79.0,74.0,29.94,East,92,5.0,13.0,84,0.00,,,0.00,weatherlink.com 1.10,2013-01-24 10:45:00,
2013-01-24 07:00:00,78.9,73.0,29.94,ENE,74,2.0,10.0,82,0.00,,,0.00,weatherlink.com 1.10,2013-01-24 11:00:00,
2013-01-24 07:15:00,79.2,74.0,29.95,ENE,59,4.0,9.0,83,0.00,,,0.00,weatherlink.com 1.10,2013-01-24 11:15:00,
2013-01-24 07:30:00,79.4,74.0,29.95,ENE,78,4.0,13.0,82,0.00,,,0.00,weatherlink.com 1.10,2013-01-24 11:30:00,
2013-01-24 07:45:00,79.7,74.0,29.96,ENE,61,7.0,14.0,82,0.00,,,0.00,weatherlink.com 1.10,2013-01-24 11:45:00,
2013-01-24 08:00:00,80.5,74.0,29.97,East,94,7.0,17.0,80,0.00,,,0.00,weatherlink.com 1.10,2013-01-24 12:00:00,
2013-01-24 08:15:00,81.2,74.0,29.96,SE,135,3.0,15.0,79,0.00,,,0.00,weatherlink.com 1.10,2013-01-24 12:15:00,
2013-01-24 08:30:00,81.2,74.0,29.97,East,83,6.0,14.0,78,0.00,,,0.00,weatherlink.com 1.10,2013-01-24 12:30:00,
2013-01-24 08:45:00,81.9,74.0,29.98,ENE,75,5.0,17.0,77,0.00,,,0.00,weatherlink.com 1.10,2013-01-24 12:45:00,
2013-01-24 09:00:00,82.5,75.0,29.98,SE,124,6.0,14.0,78,0.00,,,0.00,weatherlink.com 1.10,2013-01-24 13:00:00,
2013-01-24 09:15:00,83.0,75.0,29.99,East,85,10.0,17.0,76,0.00,,,0.00,weatherlink.com 1.10,2013-01-24 13:15:00,
2013-01-24 09:30:00,83.4,75.0,30.00,ENE,59,12.0,17.0,75,0.00,,,0.00,weatherlink.com 1.10,2013-01-24 13:30:00,
2013-01-24 09:45:00,82.5,74.0,30.00,ENE,67,8.0,18.0,76,0.00,,,0.00,weatherlink.com 1.10,2013-01-24 13:45:00,
2013-01-24 10:00:00,83.9,75.0,30.00,ESE,109,7.0,17.0,74,0.00,,,0.00,weatherlink.com 1.10,2013-01-24 14:00:00,
2013-01-24 10:15:00,83.3,74.0,30.00,ENE,71,11.0,17.0,73,0.00,,,0.00,weatherlink.com 1.10,2013-01-24 14:15:00,
2013-01-24 10:30:00,84.3,74.0,30.00,ESE,106,8.0,17.0,72,0.00,,,0.00,weatherlink.com 1.10,2013-01-24 14:30:00,
2013-01-24 10:45:00,84.7,75.0,30.00,ENE,61,4.0,16.0,72,0.00,,,0.00,weatherlink.com 1.10,2013-01-24 14:45:00,
2013-01-24 11:00:00,84.4,75.0,30.00,East,92,10.0,18.0,73,0.00,,,0.00,weatherlink.com 1.10,2013-01-24 15:00:00,
2013-01-24 11:15:00,84.7,74.0,29.99,ESE,113,4.0,19.0,71,0.00,,,0.00,weatherlink.com 1.10,2013-01-24 15:15:00,
2013-01-24 11:30:00,84.1,75.0,29.99,ESE,105,7.0,21.0,73,0.00,,,0.00,weatherlink.com 1.10,2013-01-24 15:30:00,
2013-01-24 11:45:00,84.8,74.0,29.99,NE,42,8.0,19.0,70,0.00,,,0.00,weatherlink.com 1.10,2013-01-24 15:45:00,
2013-01-24 12:00:00,85.0,75.0,29.98,SE,126,6.0,16.0,73,0.00,,,0.00,weatherlink.com 1.10,2013-01-24 16:00:00,
2013-01-24 12:15:00,85.1,75.0,29.98,East,79,3.0,21.0,72,0.00,,,0.00,weatherlink.com 1.10,2013-01-24 16:15:00,
2013-01-24 12:30:00,84.5,75.0,29.97,East,80,7.0,17.0,73,0.00,,,0.00,weatherlink.com 1.10,2013-01-24 16:30:00,
2013-01-24 12:45:00,84.9,75.0,29.97,ENE,61,4.0,16.0,72,0.00,,,0.00,weatherlink.com 1.10,2013-01-24 16:45:00,
2013-01-24 13:01:00,84.4,75.0,29.96,ENE,78,7.0,17.0,73,0.00,,,0.00,weatherlink.com 1.10,2013-01-24 17:01:00,
2013-01-24 13:16:00,84.7,75.0,29.95,East,83,6.0,16.0,73,0.00,,,0.00,weatherlink.com 1.10,2013-01-24 17:16:00,
2013-01-24 13:31:00,85.0,75.0,29.94,East,79,9.0,16.0,72,0.00,,,0.00,weatherlink.com 1.10,2013-01-24 17:31:00,
2013-01-24 13:46:00,84.7,74.0,29.93,ESE,121,7.0,18.0,71,0.00,,,0.00,weatherlink.com 1.10,2013-01-24 17:46:00,
2013-01-24 14:01:00,84.4,74.0,29.92,ENE,67,9.0,18.0,71,0.00,,,0.00,weatherlink.com 1.10,2013-01-24 18:01:00,
2013-01-24 14:16:00,84.5,74.0,29.91,East,88,3.0,17.0,71,0.00,,,0.00,weatherlink.com 1.10,2013-01-24 18:16:00,
2013-01-24 14:31:00,84.8,75.0,29.90,East,96,11.0,19.0,72,0.00,,,0.00,weatherlink.com 1.10,2013-01-24 18:31:00,
2013-01-24 14:46:00,84.4,74.0,29.89,ENE,76,5.0,18.0,71,0.00,,,0.00,weatherlink.com 1.10,2013-01-24 18:46:00,
2013-01-24 15:01:00,84.6,75.0,29.89,ENE,71,14.0,16.0,72,0.00,,,0.00,weatherlink.com 1.10,2013-01-24 19:01:00,
2013-01-24 15:16:00,83.8,74.0,29.89,ESE,105,3.0,15.0,72,0.00,,,0.00,weatherlink.com 1.10,2013-01-24 19:16:00,
2013-01-24 15:31:00,83.8,74.0,29.89,East,90,3.0,13.0,72,0.00,,,0.00,weatherlink.com 1.10,2013-01-24 19:31:00,
2013-01-24 15:46:00,83.1,74.0,29.89,East,86,11.0,15.0,74,0.00,,,0.00,weatherlink.com 1.10,2013-01-24 19:46:00,
2013-01-24 16:01:00,83.0,74.0,29.89,ENE,74,8.0,14.0,75,0.00,,,0.00,weatherlink.com 1.10,2013-01-24 20:01:00,
2013-01-24 16:16:00,83.0,75.0,29.89,ESE,103,9.0,16.0,76,0.00,,,0.00,weatherlink.com 1.10,2013-01-24 20:16:00,
2013-01-24 16:31:00,83.1,74.0,29.89,ESE,103,8.0,15.0,74,0.00,,,0.00,weatherlink.com 1.10,2013-01-24 20:31:00,
2013-01-24 16:46:00,83.2,74.0,29.90,East,98,11.0,15.0,74,0.00,,,0.00,weatherlink.com 1.10,2013-01-24 20:46:00,
2013-01-24 17:01:00,82.4,75.0,29.90,ENE,69,9.0,16.0,77,0.00,,,0.00,weatherlink.com 1.10,2013-01-24 21:01:00,
2013-01-24 17:16:00,79.2,75.0,29.90,ESE,107,10.0,14.0,86,0.02,,,0.02,weatherlink.com 1.10,2013-01-24 21:16:00,
2013-01-24 17:31:00,78.9,74.0,29.91,East,100,6.0,11.0,86,0.02,,,0.02,weatherlink.com 1.10,2013-01-24 21:31:00,
2013-01-24 17:46:00,79.6,73.0,29.91,East,90,8.0,16.0,81,0.02,,,0.02,weatherlink.com 1.10,2013-01-24 21:46:00,
2013-01-24 18:01:00,79.8,74.0,29.91,ENE,72,4.0,14.0,81,0.02,,,0.02,weatherlink.com 1.10,2013-01-24 22:01:00,
2013-01-24 18:16:00,79.8,74.0,29.91,East,101,5.0,13.0,81,0.00,,,0.02,weatherlink.com 1.10,2013-01-24 22:16:00,
2013-01-24 18:31:00,79.6,74.0,29.91,East,80,7.0,10.0,82,0.00,,,0.02,weatherlink.com 1.10,2013-01-24 22:31:00,
2013-01-24 18:46:00,79.6,73.0,29.91,East,98,7.0,13.0,81,0.00,,,0.02,weatherlink.com 1.10,2013-01-24 22:46:00,
2013-01-24 19:01:00,79.6,74.0,29.92,SE,138,0.0,12.0,82,0.00,,,0.02,weatherlink.com 1.10,2013-01-24 23:01:00,
2013-01-24 19:16:00,79.7,74.0,29.93,ESE,113,10.0,15.0,82,0.00,,,0.02,weatherlink.com 1.10,2013-01-24 23:16:00,
2013-01-24 19:31:00,79.7,73.0,29.93,ENE,65,8.0,15.0,79,0.00,,,0.02,weatherlink.com 1.10,2013-01-24 23:31:00,
2013-01-24 19:46:00,79.7,73.0,29.93,ENE,77,3.0,14.0,79,0.00,,,0.02,weatherlink.com 1.10,2013-01-24 23:46:00,
2013-01-24 20:01:00,79.6,73.0,29.93,East,87,5.0,12.0,80,0.00,,,0.02,weatherlink.com 1.10,2013-01-25 00:01:00,
2013-01-24 20:16:00,79.5,73.0,29.94,ENE,71,7.0,12.0,80,0.00,,,0.02,weatherlink.com 1.10,2013-01-25 00:16:00,
2013-01-24 20:31:00,79.5,72.0,29.95,East,88,3.0,12.0,78,0.00,,,0.02,weatherlink.com 1.10,2013-01-25 00:31:00,
2013-01-24 20:46:00,79.4,72.0,29.95,ESE,107,5.0,11.0,77,0.00,,,0.02,weatherlink.com 1.10,2013-01-25 00:46:00,
2013-01-24 21:01:00,79.6,73.0,29.96,East,90,6.0,10.0,80,0.00,,,0.02,weatherlink.com 1.10,2013-01-25 01:01:00,
2013-01-24 21:16:00,79.5,73.0,29.96,East,96,3.0,10.0,81,0.00,,,0.02,weatherlink.com 1.10,2013-01-25 01:16:00,
2013-01-24 21:31:00,79.5,74.0,29.96,NE,44,5.0,9.0,82,0.00,,,0.02,weatherlink.com 1.10,2013-01-25 01:31:00,
2013-01-24 21:46:00,79.6,74.0,29.97,ENE,71,4.0,10.0,83,0.00,,,0.02,weatherlink.com 1.10,2013-01-25 01:46:00,
2013-01-24 22:01:00,79.3,73.0,29.97,ESE,111,4.0,12.0,82,0.00,,,0.02,weatherlink.com 1.10,2013-01-25 02:01:00,
2013-01-24 22:16:00,79.3,73.0,29.97,ENE,75,5.0,11.0,81,0.00,,,0.02,weatherlink.com 1.10,2013-01-25 02:16:00,
2013-01-24 22:31:00,79.0,73.0,29.97,NE,55,0.0,8.0,82,0.00,,,0.02,weatherlink.com 1.10,2013-01-25 02:31:00,
2013-01-24 22:47:00,78.8,73.0,29.97,ENE,61,4.0,8.0,83,0.00,,,0.02,weatherlink.com 1.10,2013-01-25 02:47:00,
2013-01-24 23:01:00,78.8,73.0,29.97,East,90,2.0,10.0,83,0.00,,,0.02,weatherlink.com 1.10,2013-01-25 03:01:00,
2013-01-24 23:16:00,78.9,73.0,29.97,ENE,66,4.0,10.0,83,0.00,,,0.02,weatherlink.com 1.10,2013-01-25 03:16:00,
2013-01-24 23:31:00,79.0,73.0,29.96,ENE,70,5.0,12.0,82,0.00,,,0.02,weatherlink.com 1.10,2013-01-25 03:31:00,
2013-01-24 23:46:00,78.7,74.0,29.97,East,100,5.0,9.0,84,0.00,,,0.02,weatherlink.com 1.10,2013-01-25 03:46:00,